Wind_Speed
27 27 27 27 28 29 29 29 29 30 30 31 31 31 32 32 32 31 31 31 31 30 30 29 29 28 28 28 27 27 27 28 28 28 28 28 29 29 29 29 30 30 29
27 27 27 28 28 29 29 29 29 30 30 31 31 31 32 32 32 32 31 31 31 30 30 30 29 29 28 27 26 26 26 26 26 26 27 27 27 27 26 27 28 28 27
27 27 27 27 27 28 28 29 29 28 28 29 29 30 30 31 31 30 30 29 29 29 29 29 28 27 26 25 25 24 24 24 25 25 25 24 25 25 26 25 25 25 25
26 26 27 27 28 27 27 27 27 26 26 27 28 28 28 28 28 28 28 28 27 26 26 25 25 25 24 24 23 22 22 22 22 23 23 23 23 23 24 24 23 22 21
27 27 27 27 27 26 26 26 25 25 25 26 25 25 25 26 26 25 25 25 24 24 23 22 22 21 21 21 21 21 20 20 20 21 21 21 21 21 21 21 20 20 20
26 26 26 26 26 25 24 24 24 24 24 23 22 22 22 23 22 22 21 22 22 21 21 19 18 18 18 18 18 18 18 18 18 18 17 17 16 16 16 16 16 16 16
25 25 25 25 24 23 22 22 22 22 21 20 20 20 20 20 19 19 19 18 18 18 17 16 15 16 16 16 15 15 15 15 15 15 15 13 12 12 13 13 13 12 12
23 23 23 22 21 20 20 19 20 20 19 19 19 18 18 17 17 16 16 15 14 14 14 13 12 12 12 12 12 13 13 13 12 12 12 11 11 10 10 10 10 10 10
21 21 20 20 19 18 17 17 17 17 17 17 17 17 16 16 15 14 13 12 12 12 11 11 10 10 10 10 10 10 10 9 9 9 8 8 8 7 7 6 6 6 6
18 18 18 17 17 16 16 15 15 14 14 14 13 13 12 12 12 12 11 9 9 9 9 9 9 8 7 7 7 7 7 7 6 6 6 6 5 4 4 3 3 3 3
16 16 15 15 14 14 14 14 13 12 12 11 10 10 10 9 9 9 8 8 8 8 8 8 7 7 7 6 6 5 6 5 4 4 4 3 3 3 2 2 1 1 2
13 13 12 12 12 11 10 10 10 10 9 8 8 8 8 8 7 8 8 7 6 7 7 7 6 6 6 5 6 5 5 5 4 3 3 3 2 2 2 1 0 1 2
10 9 9 9 8 8 7 7 7 6 6 6 7 7 7 7 7 7 7 7 7 7 6 7 6 6 6 6 6 6 5 5 4 4 4 4 4 4 3 2 2 2 2
7 6 6 5 5 5 4 5 5 5 6 6 6 7 8 8 8 7 7 8 8 8 8 8 9 9 8 8 7 6 6 6 6 6 6 6 6 6 5 4 4 4 4
3 3 3 2 2 3 3 3 4 5 6 6 7 7 7 8 9 9 9 9 9 9 10 10 10 9 9 8 8 8 8 8 8 7 8 8 7 6 5 5 5 5 5
1 1 1 2 3 3 4 4 5 5 6 7 7 7 7 8 9 10 11 11 12 11 11 11 10 10 9 9 9 9 8 8 8 8 8 7 7 6 6 6 6 6 6
3 3 4 4 4 5 5 6 6 7 7 7 7 8 9 10 11 12 13 13 13 12 12 11 11 11 10 10 9 9 9 9 9 8 8 7 7 7 6 6 6 7 7
5 5 6 6 6 6 6 7 8 8 9 9 9 10 12 12 13 13 13 13 13 13 12 12 11 11 10 10 10 10 10 10 9 8 8 7 7 7 7 7 7 7 8
7 7 7 7 7 7 7 8 9 9 9 10 11 11 12 12 12 13 13 13 13 12 12 12 12 11 11 11 11 11 10 10 9 8 8 7 7 7 7 7 8 9 10
6 7 7 8 9 9 8 9 10 10 10 11 11 12 12 12 13 13 13 13 13 13 13 13 12 12 11 11 11 10 10 9 8 8 7 6 6 6 7 7 8 10 11
8 9 9 10 10 10 10 11 11 11 11 12 13 13 13 13 13 14 14 14 14 13 13 12 12 11 11 11 10 10 9 8 7 7 6 5 5 6 7 8 9 11 12
11 11 11 12 12 11 11 11 12 13 13 13 14 14 13 13 14 14 14 14 14 13 12 12 11 11 10 9 9 8 7 6 6 5 5 5 5 6 7 9 10 12 13
12 13 12 12 12 12 12 12 14 14 14 14 14 14 14 14 14 13 13 13 12 11 11 10 10 10 9 8 7 6 5 4 3 3 3 5 6 8 9 11 12 13 15
12 12 12 12 12 12 12 12 13 13 13 13 13 13 13 13 13 12 12 11 10 10 9 9 8 7 7 6 5 4 3 2 2 3 5 6 8 9 11 13 14 16 18
11 11 11 11 11 11 11 12 11 11 11 11 11 11 11 11 11 10 10 9 9 8 8 7 6 5 4 3 2 1 1 2 3 5 7 8 10 12 13 15 17 19 21
9 9 9 10 10 10 10 10 9 9 10 10 10 10 10 9 9 9 8 8 7 7 6 5 4 3 2 1 1 1 3 4 6 8 9 11 13 14 16 18 20 22 23
Wind_Direction
277 278 278 277 277 277 277 276 275 274 273 271 270 269 268 269 270 270 270 270 269 268 268 269 268 268 268 267 267 268 268 268 268 268 269 271 273 273 272 270 271 272 272
277 278 278 279 279 278 277 276 276 276 274 272 272 270 269 269 270 271 270 270 269 268 268 268 267 267 266 265 265 266 267 268 267 267 268 269 270 271 271 271 273 274 273
277 279 279 279 279 278 278 276 276 275 274 273 272 271 271 270 270 269 269 269 269 268 268 267 266 264 264 263 263 265 266 267 267 267 267 269 269 270 271 270 272 272 274
278 278 278 278 279 279 279 278 276 275 275 274 273 271 270 269 269 268 268 267 266 266 266 266 264 261 260 261 262 263 265 265 265 266 266 268 269 270 270 269 269 273 275
277 278 279 279 280 280 279 278 277 276 275 274 272 270 268 268 267 267 266 265 264 264 265 264 262 260 259 260 262 263 263 263 264 265 266 265 266 268 268 268 270 272 274
277 278 278 280 281 280 278 278 277 275 275 273 270 270 268 267 267 264 264 263 262 260 261 262 262 261 259 260 261 261 260 260 260 261 262 262 264 266 269 270 271 273 278
276 276 278 279 279 279 277 276 276 273 272 270 270 269 267 266 264 261 262 262 260 258 259 260 257 255 255 254 255 255 254 255 257 258 258 259 262 267 268 269 271 274 281
277 277 277 278 278 277 276 273 273 272 272 269 268 265 264 262 260 259 257 257 256 254 252 250 247 248 247 246 251 255 255 256 255 254 254 259 262 262 260 265 272 279 282
281 282 281 280 280 278 275 273 272 271 271 270 265 261 258 256 255 253 254 251 250 247 243 238 237 241 242 245 246 247 248 244 244 247 246 248 252 253 258 265 267 273 283
283 283 283 282 277 275 274 272 271 269 268 266 261 254 253 253 247 242 239 238 237 232 228 225 224 227 230 234 234 236 232 228 231 235 233 234 236 238 244 247 248 270 288
281 281 284 284 278 274 272 269 266 264 263 258 253 246 241 237 233 224 219 223 226 223 216 214 217 215 213 221 218 211 201 198 198 200 201 202 208 210 210 219 231 285 315
281 282 283 282 277 271 267 262 263 262 254 248 240 233 228 220 216 210 207 211 211 206 198 197 199 195 194 189 180 177 172 163 160 165 167 168 170 166 163 158 130 17 360
285 285 284 281 273 267 260 254 253 246 237 230 223 214 205 201 197 189 188 187 187 184 181 180 176 165 159 156 152 148 143 144 141 140 140 134 129 125 118 106 72 39 21
285 282 274 271 266 258 242 233 227 215 211 209 200 191 186 185 180 169 163 163 166 166 163 158 154 148 141 140 137 131 126 126 124 122 120 115 109 102 91 78 68 57 45
289 276 268 256 227 199 196 194 190 186 180 175 175 173 170 169 168 166 161 152 149 150 151 150 147 141 134 128 125 126 125 123 121 114 110 107 104 97 85 74 66 54 40
45 106 137 161 157 149 145 154 162 165 159 151 152 154 154 156 160 159 151 147 147 144 142 140 139 135 131 130 126 124 123 120 116 111 108 104 100 91 81 70 59 49 38
89 107 120 134 137 135 135 139 141 142 143 141 141 143 143 141 144 144 144 143 140 138 139 138 135 131 127 126 124 121 118 115 114 111 106 100 94 86 77 66 54 42 31
94 100 108 117 124 128 130 133 134 134 134 137 136 135 133 134 136 136 138 138 136 134 133 133 132 128 126 122 119 118 116 114 110 107 102 96 89 82 72 61 48 34 22
92 93 100 111 117 123 124 124 126 128 130 133 132 130 131 133 134 134 134 134 133 133 131 130 129 126 123 119 118 117 115 112 108 104 98 91 83 72 60 46 32 21 14
88 93 101 110 112 116 120 122 124 126 125 126 129 132 133 133 132 132 134 134 133 131 129 127 126 124 121 119 118 117 114 111 106 100 92 83 72 58 42 29 19 12 6
90 98 104 108 110 111 114 118 123 125 125 125 125 127 131 132 130 129 132 133 131 129 127 126 125 124 123 121 119 119 115 109 101 94 85 72 56 37 22 13 6 1 357
92 100 106 107 108 109 112 116 122 124 123 123 123 125 127 129 129 130 131 131 130 129 128 127 127 127 126 123 120 117 112 103 95 86 72 50 30 17 9 1 356 353 351
95 101 104 107 108 109 111 114 119 120 120 121 123 125 126 128 129 129 130 130 130 129 129 130 130 129 127 123 119 115 108 95 81 61 32 11 1 355 351 347 345 344 342
97 101 103 105 107 109 112 115 118 119 119 122 123 124 126 129 131 132 133 133 132 132 132 133 133 131 128 123 118 111 95 65 29 5 354 347 343 341 341 341 339 338 337
99 100 101 101 104 108 111 115 118 120 123 125 127 129 131 133 135 136 136 135 135 136 138 139 139 138 136 135 130 109 27 345 337 335 334 332 331 332 332 331 331 331 332
100 102 104 104 106 109 112 116 119 122 126 130 132 133 135 136 137 138 140 142 146 150 152 153 154 157 164 179 227 296 312 316 318 320 320 321 322 323 324 325 326 327 328
Height
5797 5795 5794 5793 5792 5791 5790 5789 5788 5787 5787 5786 5786 5786 5786 5786 5786 5786 5786 5787 5787 5788 5788 5788 5788 5789 5789 5789 5790 5790 5790 5791 5791 5791 5791 5791 5791 5790 5790 5790 5790 5790 5790
5789 5788 5787 5786 5784 5783 5782 5781 5780 5779 5778 5777 5777 5777 5777 5777 5778 5778 5778 5778 5779 5779 5780 5780 5781 5781 5781 5782 5783 5783 5783 5784 5784 5784 5784 5784 5784 5784 5784 5784 5784 5784 5784
5782 5780 5779 5778 5777 5775 5774 5773 5772 5771 5770 5769 5769 5768 5768 5769 5769 5769 5770 5770 5770 5771 5771 5772 5772 5773 5774 5775 5776 5776 5777 5777 5778 5778 5778 5778 5778 5778 5778 5778 5778 5778 5778
5774 5773 5772 5770 5769 5768 5766 5765 5764 5763 5762 5761 5761 5760 5760 5760 5761 5761 5762 5762 5763 5763 5764 5764 5765 5766 5767 5768 5769 5770 5771 5771 5771 5772 5772 5772 5772 5772 5772 5772 5772 5772 5772
5767 5765 5764 5763 5761 5760 5759 5757 5756 5755 5754 5753 5753 5753 5753 5753 5754 5754 5755 5755 5756 5756 5757 5757 5758 5759 5760 5762 5763 5764 5765 5765 5766 5766 5767 5767 5767 5767 5767 5767 5767 5767 5767
5759 5758 5756 5755 5754 5752 5751 5750 5749 5748 5747 5747 5746 5746 5746 5747 5747 5747 5748 5749 5749 5750 5751 5752 5752 5753 5755 5756 5757 5758 5760 5760 5761 5762 5762 5762 5762 5762 5762 5762 5763 5763 5763
5751 5750 5749 5747 5746 5745 5744 5743 5742 5742 5741 5741 5740 5740 5741 5741 5741 5742 5742 5743 5744 5745 5746 5746 5747 5749 5750 5752 5753 5754 5755 5756 5757 5757 5758 5758 5758 5759 5759 5759 5759 5759 5759
5743 5742 5741 5740 5739 5738 5738 5737 5736 5736 5735 5735 5735 5735 5735 5736 5737 5737 5738 5738 5739 5741 5742 5743 5744 5745 5747 5748 5749 5750 5751 5752 5753 5753 5754 5755 5755 5756 5756 5756 5756 5756 5756
5736 5735 5734 5733 5733 5732 5732 5732 5731 5731 5730 5730 5730 5730 5731 5732 5733 5734 5735 5735 5736 5737 5738 5740 5741 5743 5744 5745 5747 5747 5748 5749 5750 5750 5751 5752 5753 5753 5753 5754 5754 5754 5754
5730 5729 5728 5728 5727 5727 5727 5727 5727 5726 5726 5726 5726 5726 5727 5728 5729 5731 5732 5733 5734 5735 5736 5738 5739 5741 5742 5743 5744 5745 5746 5747 5748 5748 5749 5750 5751 5751 5752 5752 5752 5752 5752
5725 5724 5724 5723 5723 5723 5723 5723 5723 5723 5723 5723 5723 5724 5725 5726 5727 5728 5730 5732 5733 5734 5735 5736 5738 5739 5740 5742 5743 5744 5744 5746 5746 5747 5748 5749 5749 5750 5750 5750 5751 5751 5751
5721 5720 5720 5720 5719 5719 5719 5719 5720 5720 5720 5720 5721 5722 5723 5724 5726 5727 5729 5730 5732 5733 5735 5736 5737 5738 5740 5741 5742 5743 5744 5745 5746 5746 5747 5748 5748 5749 5749 5750 5750 5750 5750
5717 5717 5717 5716 5716 5717 5717 5717 5717 5718 5718 5719 5720 5720 5722 5723 5724 5726 5728 5730 5731 5733 5734 5736 5737 5738 5740 5741 5742 5743 5744 5745 5745 5746 5747 5747 5748 5749 5749 5749 5750 5749 5749
5715 5715 5715 5715 5715 5715 5715 5716 5716 5717 5718 5718 5719 5720 5721 5723 5724 5726 5728 5730 5731 5733 5734 5736 5737 5739 5740 5741 5742 5743 5744 5745 5746 5747 5747 5748 5748 5749 5749 5750 5750 5749 5749
5713 5713 5713 5714 5714 5715 5715 5716 5716 5717 5718 5719 5720 5720 5722 5723 5725 5726 5728 5730 5732 5733 5735 5737 5738 5740 5741 5742 5743 5744 5745 5746 5747 5748 5748 5749 5749 5750 5750 5750 5750 5749 5749
5713 5713 5713 5714 5714 5715 5716 5716 5717 5718 5719 5720 5721 5722 5723 5724 5725 5727 5729 5731 5733 5735 5737 5738 5740 5741 5742 5743 5745 5746 5747 5747 5748 5749 5750 5750 5751 5751 5751 5751 5750 5750 5749
5714 5714 5714 5715 5715 5716 5717 5718 5719 5720 5720 5721 5722 5723 5725 5726 5727 5729 5731 5733 5735 5737 5738 5740 5742 5743 5744 5745 5746 5747 5748 5749 5750 5751 5751 5752 5752 5752 5752 5751 5751 5750 5750
5716 5716 5716 5717 5717 5718 5719 5720 5721 5722 5723 5724 5725 5726 5727 5729 5730 5732 5734 5735 5737 5739 5741 5742 5743 5745 5746 5747 5748 5749 5750 5751 5752 5752 5753 5753 5753 5753 5753 5752 5752 5751 5749
5718 5718 5719 5719 5720 5720 5721 5722 5723 5724 5725 5726 5728 5729 5730 5732 5733 5735 5736 5738 5740 5741 5743 5744 5746 5747 5748 5749 5750 5751 5752 5753 5754 5754 5754 5754 5754 5754 5753 5753 5752 5750 5749
5720 5721 5721 5722 5722 5723 5724 5725 5726 5727 5728 5729 5730 5732 5733 5735 5736 5738 5739 5741 5743 5744 5746 5747 5748 5750 5751 5752 5753 5754 5754 5755 5755 5755 5755 5755 5755 5755 5754 5753 5752 5750 5748
5723 5723 5724 5725 5725 5726 5727 5728 5729 5730 5731 5732 5733 5735 5736 5738 5740 5741 5743 5744 5746 5747 5749 5750 5751 5752 5753 5754 5755 5756 5756 5757 5757 5757 5756 5756 5756 5755 5754 5752 5751 5749 5747
5727 5727 5728 5728 5729 5730 5730 5731 5732 5733 5734 5736 5737 5738 5739 5741 5743 5744 5746 5747 5749 5750 5752 5753 5754 5755 5756 5756 5757 5757 5758 5758 5758 5758 5757 5757 5756 5755 5754 5752 5750 5748 5746
5731 5731 5732 5732 5733 5734 5734 5735 5736 5737 5738 5739 5741 5742 5743 5745 5746 5748 5749 5750 5752 5753 5754 5755 5756 5757 5757 5758 5758 5758 5759 5759 5759 5758 5758 5757 5756 5754 5753 5751 5749 5746 5744
5735 5736 5736 5737 5737 5738 5738 5739 5740 5741 5742 5743 5744 5745 5747 5748 5749 5751 5752 5753 5754 5755 5756 5757 5758 5758 5759 5759 5759 5759 5759 5759 5759 5758 5757 5756 5755 5753 5751 5749 5746 5744 5741
5740 5740 5740 5741 5741 5742 5742 5743 5744 5745 5746 5747 5748 5749 5750 5751 5752 5753 5754 5755 5756 5757 5758 5758 5759 5759 5760 5760 5760 5760 5760 5759 5758 5757 5756 5754 5753 5751 5749 5746 5743 5741 5737
5743 5744 5744 5744 5745 5745 5746 5747 5747 5748 5749 5750 5751 5752 5753 5754 5754 5755 5756 5757 5758 5758 5759 5759 5760 5760 5760 5760 5760 5760 5759 5758 5757 5756 5754 5752 5750 5748 5746 5743 5740 5736 5733